Location: Carlisle
(34.5501°N, 84.5969°W)
Time: 15:15:27
(UTC+00:00)

ISS - Visible Passes

Search period start: 01 December 2021 00:00
Search period end: 11 December 2021 00:00
Orbit: 417 x 423 km, 51.6° (Epoch: 01 December)

Date Brightness Start Highest point End Pass type
(mag) Time Alt. Az. Time Alt. Az. Time Alt. Az.
04 Dec -1.1 00:01:54 10° N 00:02:10 11° N 00:02:10 11° N visible
04 Dec -1.5 23:15:33 10° N 23:16:38 11° NNE 23:17:15 11° NE visible
06 Dec -2.4 00:03:31 10° NNW 00:05:33 28° N 00:05:33 28° N visible
06 Dec -2.5 23:16:35 10° NNW 23:19:25 24° NE 23:21:04 17° ENE visible
07 Dec -0.7 00:53:14 10° WNW 00:54:07 16° WNW 00:54:07 16° WNW visible
08 Dec -3.2 00:05:45 10° NW 00:09:05 56° SW 00:10:03 38° S visible
08 Dec -3.8 23:18:28 10° NW 23:21:52 74° NE 23:25:14 10° SE visible
10 Dec -0.6 00:09:01 10° W 00:11:08 16° SW 00:13:15 10° SSW visible
10 Dec -1.5 23:21:03 10° WNW 23:24:01 28° SW 23:26:59 10° SSE visible
